Time,TemperatureF,DewpointF,PressureIn,WindDirection,WindDirectionDegrees,WindSpeedMPH,WindSpeedGustMPH,Humidity,HourlyPrecipIn,Conditions,Clouds,dailyrainin,SoftwareType,DateUTC
2013-02-01 00:00:00,33.6,21.0,30.44,SW,221,1.0,-999.0,61,-99.99,,,0.00,weatherlink.com 1.10,2013-02-01 07:00:00,
2013-02-01 00:19:00,33.9,21.0,30.43,SW,221,0.0,-999.0,59,-99.99,,,0.00,weatherlink.com 1.10,2013-02-01 07:19:00,
2013-02-01 00:30:00,34.5,22.0,30.44,SW,223,0.0,-999.0,60,-99.99,,,0.00,weatherlink.com 1.10,2013-02-01 07:30:00,
2013-02-01 00:45:00,33.6,21.0,30.43,SW,223,0.0,-999.0,60,-99.99,,,0.00,weatherlink.com 1.10,2013-02-01 07:45:00,
2013-02-01 01:00:00,32.9,22.0,30.43,SW,223,0.0,-999.0,64,-99.99,,,0.00,weatherlink.com 1.10,2013-02-01 08:00:00,
2013-02-01 01:19:00,32.5,22.0,30.42,SW,223,0.0,-999.0,65,-99.99,,,0.00,weatherlink.com 1.10,2013-02-01 08:19:00,
2013-02-01 01:30:00,32.6,21.0,30.42,SW,223,0.0,-999.0,63,-99.99,,,0.00,weatherlink.com 1.10,2013-02-01 08:30:00,
2013-02-01 01:45:00,32.8,22.0,30.42,SW,223,1.0,-999.0,64,-99.99,,,0.00,weatherlink.com 1.10,2013-02-01 08:45:00,
2013-02-01 02:00:00,32.6,21.0,30.42,SW,223,0.0,-999.0,62,-99.99,,,0.00,weatherlink.com 1.10,2013-02-01 09:00:00,
2013-02-01 02:20:00,32.4,21.0,30.42,SW,223,0.0,-999.0,64,-99.99,,,0.00,weatherlink.com 1.10,2013-02-01 09:20:00,
2013-02-01 02:32:00,32.0,21.0,30.42,SW,223,0.0,-999.0,65,-99.99,,,0.00,weatherlink.com 1.10,2013-02-01 09:32:00,
2013-02-01 02:45:00,31.9,21.0,30.42,SW,225,0.0,-999.0,64,-99.99,,,0.00,weatherlink.com 1.10,2013-02-01 09:45:00,
2013-02-01 03:01:00,32.1,21.0,30.41,SW,225,1.0,-999.0,65,-99.99,,,0.00,weatherlink.com 1.10,2013-02-01 10:01:00,
2013-02-01 03:19:00,32.1,21.0,30.41,SW,225,1.0,-999.0,64,-99.99,,,0.00,weatherlink.com 1.10,2013-02-01 10:19:00,
2013-02-01 03:30:00,32.5,21.0,30.41,SW,225,0.0,-999.0,62,-99.99,,,0.00,weatherlink.com 1.10,2013-02-01 10:30:00,
2013-02-01 03:46:00,32.9,21.0,30.42,SW,225,0.0,-999.0,61,-99.99,,,0.00,weatherlink.com 1.10,2013-02-01 10:46:00,
2013-02-01 04:00:00,33.1,20.0,30.41,SW,225,0.0,-999.0,60,-99.99,,,0.00,weatherlink.com 1.10,2013-02-01 11:00:00,
2013-02-01 04:19:00,32.6,20.0,30.41,SW,225,0.0,-999.0,61,-99.99,,,0.00,weatherlink.com 1.10,2013-02-01 11:19:00,
2013-02-01 04:30:00,32.4,20.0,30.41,SW,225,0.0,-999.0,61,-99.99,,,0.00,weatherlink.com 1.10,2013-02-01 11:30:00,
2013-02-01 04:45:00,31.9,21.0,30.41,SW,225,0.0,-999.0,65,-99.99,,,0.00,weatherlink.com 1.10,2013-02-01 11:45:00,
2013-02-01 05:01:00,31.7,21.0,30.41,SW,225,0.0,-999.0,64,-99.99,,,0.00,weatherlink.com 1.10,2013-02-01 12:01:00,
2013-02-01 05:20:00,31.4,21.0,30.41,SW,225,0.0,-999.0,66,-99.99,,,0.00,weatherlink.com 1.10,2013-02-01 12:20:00,
2013-02-01 05:30:00,31.6,21.0,30.41,SW,225,1.0,-999.0,64,-99.99,,,0.00,weatherlink.com 1.10,2013-02-01 12:30:00,
2013-02-01 05:45:00,31.2,21.0,30.41,SW,225,1.0,-999.0,65,-99.99,,,0.00,weatherlink.com 1.10,2013-02-01 12:45:00,
2013-02-01 06:00:00,31.4,21.0,30.41,SW,225,0.0,-999.0,65,-99.99,,,0.00,weatherlink.com 1.10,2013-02-01 13:00:00,
2013-02-01 06:19:00,30.5,21.0,30.41,SW,225,0.0,-999.0,68,-99.99,,,0.00,weatherlink.com 1.10,2013-02-01 13:19:00,
2013-02-01 06:30:00,30.7,21.0,30.41,SW,225,0.0,-999.0,67,-99.99,,,0.00,weatherlink.com 1.10,2013-02-01 13:30:00,
2013-02-01 06:46:00,30.7,21.0,30.41,SW,225,0.0,-999.0,66,-99.99,,,0.00,weatherlink.com 1.10,2013-02-01 13:46:00,
2013-02-01 07:01:00,31.1,21.0,30.42,SW,225,0.0,-999.0,65,-99.99,,,0.00,weatherlink.com 1.10,2013-02-01 14:01:00,
2013-02-01 07:20:00,31.3,21.0,30.42,SW,225,0.0,-999.0,65,-99.99,,,0.00,weatherlink.com 1.10,2013-02-01 14:20:00,
2013-02-01 07:30:00,31.3,21.0,30.43,SW,225,0.0,-999.0,65,-99.99,,,0.00,weatherlink.com 1.10,2013-02-01 14:30:00,
2013-02-01 07:45:00,31.5,22.0,30.43,SW,225,0.0,-999.0,67,-99.99,,,0.00,weatherlink.com 1.10,2013-02-01 14:45:00,
2013-02-01 08:00:00,33.9,23.0,30.44,SW,225,0.0,-999.0,64,-99.99,,,0.00,weatherlink.com 1.10,2013-02-01 15:00:00,
2013-02-01 08:19:00,35.6,24.0,30.45,SW,225,0.0,-999.0,62,-99.99,,,0.00,weatherlink.com 1.10,2013-02-01 15:19:00,
2013-02-01 08:30:00,39.2,25.0,30.45,SW,225,0.0,-999.0,56,-99.99,,,0.00,weatherlink.com 1.10,2013-02-01 15:30:00,
2013-02-01 08:46:00,41.8,24.0,30.45,SW,225,0.0,-999.0,50,-99.99,,,0.00,weatherlink.com 1.10,2013-02-01 15:46:00,
2013-02-01 09:01:00,46.6,28.0,30.44,SW,225,0.0,-999.0,48,-99.99,,,0.00,weatherlink.com 1.10,2013-02-01 16:01:00,
2013-02-01 09:20:00,50.2,25.0,30.45,SW,225,0.0,-999.0,38,-99.99,,,0.00,weatherlink.com 1.10,2013-02-01 16:20:00,
2013-02-01 09:31:00,52.2,22.0,30.46,South,188,1.0,-999.0,31,-99.99,,,0.00,weatherlink.com 1.10,2013-02-01 16:31:00,
2013-02-01 09:46:00,52.4,23.0,30.46,South,175,0.0,-999.0,32,-99.99,,,0.00,weatherlink.com 1.10,2013-02-01 16:46:00,
2013-02-01 10:01:00,53.2,23.0,30.46,SSE,151,4.0,-999.0,31,-99.99,,,0.00,weatherlink.com 1.10,2013-02-01 17:01:00,
2013-02-01 10:20:00,53.3,24.0,30.45,SSE,153,0.0,-999.0,32,-99.99,,,0.00,weatherlink.com 1.10,2013-02-01 17:20:00,
2013-02-01 10:30:00,53.6,23.0,30.46,SE,140,4.0,-999.0,31,-99.99,,,0.00,weatherlink.com 1.10,2013-02-01 17:30:00,
2013-02-01 10:45:00,53.3,23.0,30.46,SE,143,2.0,-999.0,31,-99.99,,,0.00,weatherlink.com 1.10,2013-02-01 17:45:00,
2013-02-01 11:00:00,53.7,24.0,30.46,SE,126,1.0,-999.0,31,-99.99,,,0.00,weatherlink.com 1.10,2013-02-01 18:00:00,
2013-02-01 11:20:00,54.3,24.0,30.45,SE,130,4.0,-999.0,31,-99.99,,,0.00,weatherlink.com 1.10,2013-02-01 18:20:00,
2013-02-01 11:30:00,54.6,27.0,30.45,SE,144,5.0,-999.0,34,-99.99,,,0.00,weatherlink.com 1.10,2013-02-01 18:30:00,
2013-02-01 11:45:00,54.8,26.0,30.45,SE,127,5.0,-999.0,33,-99.99,,,0.00,weatherlink.com 1.10,2013-02-01 18:45:00,
2013-02-01 12:00:00,54.9,27.0,30.43,ESE,120,0.0,-999.0,34,-99.99,,,0.00,weatherlink.com 1.10,2013-02-01 19:00:00,
2013-02-01 12:20:00,55.5,26.0,30.43,SE,138,4.0,-999.0,32,-99.99,,,0.00,weatherlink.com 1.10,2013-02-01 19:20:00,
2013-02-01 12:31:00,57.3,27.0,30.42,SSE,165,1.0,-999.0,32,-99.99,,,0.00,weatherlink.com 1.10,2013-02-01 19:31:00,
2013-02-01 12:46:00,58.1,27.0,30.41,SSE,156,0.0,-999.0,30,-99.99,,,0.00,weatherlink.com 1.10,2013-02-01 19:46:00,
2013-02-01 13:01:00,58.6,26.0,30.41,SE,129,0.0,-999.0,29,-99.99,,,0.00,weatherlink.com 1.10,2013-02-01 20:01:00,
2013-02-01 13:21:00,59.1,26.0,30.40,SE,140,2.0,-999.0,28,-99.99,,,0.00,weatherlink.com 1.10,2013-02-01 20:21:00,
2013-02-01 13:31:00,58.3,27.0,30.40,SE,134,1.0,-999.0,30,-99.99,,,0.00,weatherlink.com 1.10,2013-02-01 20:31:00,
2013-02-01 13:46:00,58.2,24.0,30.39,SE,128,1.0,-999.0,27,-99.99,,,0.00,weatherlink.com 1.10,2013-02-01 20:46:00,
2013-02-01 14:01:00,57.9,25.0,30.39,SE,144,5.0,-999.0,28,-99.99,,,0.00,weatherlink.com 1.10,2013-02-01 21:01:00,
2013-02-01 14:16:00,58.0,25.0,30.38,SSE,161,4.0,-999.0,28,-99.99,,,0.00,weatherlink.com 1.10,2013-02-01 21:16:00,
2013-02-01 14:31:00,58.0,26.0,30.38,SE,129,2.0,-999.0,29,-99.99,,,0.00,weatherlink.com 1.10,2013-02-01 21:31:00,
2013-02-01 14:46:00,58.4,25.0,30.38,SE,127,2.0,-999.0,28,-99.99,,,0.00,weatherlink.com 1.10,2013-02-01 21:46:00,
2013-02-01 15:01:00,58.6,25.0,30.39,SSE,149,2.0,-999.0,27,-99.99,,,0.00,weatherlink.com 1.10,2013-02-01 22:01:00,
2013-02-01 15:21:00,58.7,25.0,30.38,SE,128,1.0,-999.0,28,-99.99,,,0.00,weatherlink.com 1.10,2013-02-01 22:21:00,
2013-02-01 15:31:00,59.1,25.0,30.38,SE,134,0.0,-999.0,27,-99.99,,,0.00,weatherlink.com 1.10,2013-02-01 22:31:00,
2013-02-01 15:46:00,59.5,26.0,30.38,SSE,161,0.0,-999.0,28,-99.99,,,0.00,weatherlink.com 1.10,2013-02-01 22:46:00,
2013-02-01 16:01:00,59.2,24.0,30.38,SSE,150,0.0,-999.0,26,-99.99,,,0.00,weatherlink.com 1.10,2013-02-01 23:01:00,
2013-02-01 16:21:00,59.1,23.0,30.38,South,173,0.0,-999.0,25,-99.99,,,0.00,weatherlink.com 1.10,2013-02-01 23:21:00,
2013-02-01 16:31:00,58.6,19.0,30.38,South,177,0.0,-999.0,21,-99.99,,,0.00,weatherlink.com 1.10,2013-02-01 23:31:00,
2013-02-01 16:46:00,57.8,19.0,30.38,South,177,0.0,-999.0,22,-99.99,,,0.00,weatherlink.com 1.10,2013-02-01 23:46:00,
2013-02-01 17:01:00,56.6,22.0,30.39,South,177,0.0,-999.0,26,-99.99,,,0.00,weatherlink.com 1.10,2013-02-02 00:01:00,
2013-02-01 17:20:00,55.6,22.0,30.39,South,177,0.0,-999.0,27,-99.99,,,0.00,weatherlink.com 1.10,2013-02-02 00:20:00,
2013-02-01 17:31:00,52.6,23.0,30.39,South,180,0.0,-999.0,32,-99.99,,,0.00,weatherlink.com 1.10,2013-02-02 00:31:00,
2013-02-01 17:46:00,50.8,24.0,30.39,South,180,0.0,-999.0,35,-99.99,,,0.00,weatherlink.com 1.10,2013-02-02 00:46:00,
2013-02-01 18:01:00,49.2,24.0,30.40,South,180,0.0,-999.0,37,-99.99,,,0.00,weatherlink.com 1.10,2013-02-02 01:01:00,
2013-02-01 18:20:00,48.4,24.0,30.40,South,180,0.0,-999.0,39,-99.99,,,0.00,weatherlink.com 1.10,2013-02-02 01:20:00,
2013-02-01 18:31:00,46.3,24.0,30.41,South,180,0.0,-999.0,42,-99.99,,,0.00,weatherlink.com 1.10,2013-02-02 01:31:00,
2013-02-01 18:47:00,44.9,23.0,30.41,South,180,1.0,-999.0,42,-99.99,,,0.00,weatherlink.com 1.10,2013-02-02 01:47:00,
2013-02-01 19:03:00,44.4,23.0,30.42,South,180,0.0,-999.0,43,-99.99,,,0.00,weatherlink.com 1.10,2013-02-02 02:03:00,
2013-02-01 19:21:00,44.3,23.0,30.42,South,180,0.0,-999.0,43,-99.99,,,0.00,weatherlink.com 1.10,2013-02-02 02:21:00,
2013-02-01 19:31:00,43.4,23.0,30.42,South,180,0.0,-999.0,44,-99.99,,,0.00,weatherlink.com 1.10,2013-02-02 02:31:00,
2013-02-01 19:46:00,43.3,22.0,30.43,South,180,0.0,-999.0,43,-99.99,,,0.00,weatherlink.com 1.10,2013-02-02 02:46:00,
2013-02-01 20:02:00,42.9,22.0,30.43,South,180,0.0,-999.0,43,-99.99,,,0.00,weatherlink.com 1.10,2013-02-02 03:02:00,
2013-02-01 20:20:00,42.3,22.0,30.43,South,180,1.0,-999.0,45,-99.99,,,0.00,weatherlink.com 1.10,2013-02-02 03:20:00,
2013-02-01 20:31:00,42.4,21.0,30.44,South,180,0.0,-999.0,43,-99.99,,,0.00,weatherlink.com 1.10,2013-02-02 03:31:00,
2013-02-01 20:46:00,41.9,22.0,30.44,South,180,0.0,-999.0,45,-99.99,,,0.00,weatherlink.com 1.10,2013-02-02 03:46:00,
2013-02-01 21:01:00,42.3,22.0,30.45,South,180,1.0,-999.0,45,-99.99,,,0.00,weatherlink.com 1.10,2013-02-02 04:01:00,
2013-02-01 21:20:00,42.1,21.0,30.45,South,180,0.0,-999.0,43,-99.99,,,0.00,weatherlink.com 1.10,2013-02-02 04:20:00,
2013-02-01 21:31:00,41.1,22.0,30.45,South,180,0.0,-999.0,46,-99.99,,,0.00,weatherlink.com 1.10,2013-02-02 04:31:00,
2013-02-01 21:46:00,40.6,22.0,30.46,South,180,1.0,-999.0,47,-99.99,,,0.00,weatherlink.com 1.10,2013-02-02 04:46:00,
2013-02-01 22:01:00,40.6,22.0,30.46,South,180,0.0,-999.0,47,-99.99,,,0.00,weatherlink.com 1.10,2013-02-02 05:01:00,
2013-02-01 22:21:00,40.2,21.0,30.46,South,180,0.0,-999.0,47,-99.99,,,0.00,weatherlink.com 1.10,2013-02-02 05:21:00,
2013-02-01 22:31:00,40.0,21.0,30.45,South,180,1.0,-999.0,47,-99.99,,,0.00,weatherlink.com 1.10,2013-02-02 05:31:00,
2013-02-01 22:47:00,40.0,21.0,30.46,South,180,0.0,-999.0,47,-99.99,,,0.00,weatherlink.com 1.10,2013-02-02 05:47:00,
2013-02-01 23:02:00,40.0,21.0,30.45,South,180,0.0,-999.0,47,-99.99,,,0.00,weatherlink.com 1.10,2013-02-02 06:02:00,
2013-02-01 23:21:00,39.5,21.0,30.45,South,180,0.0,-999.0,48,-99.99,,,0.00,weatherlink.com 1.10,2013-02-02 06:21:00,
2013-02-01 23:31:00,39.8,21.0,30.45,South,180,0.0,-999.0,47,-99.99,,,0.00,weatherlink.com 1.10,2013-02-02 06:31:00,
2013-02-01 23:46:00,39.9,20.0,30.45,South,180,1.0,-999.0,46,-99.99,,,0.00,weatherlink.com 1.10,2013-02-02 06:46:00,